Location: Strawberry
(45.6646°N, 111.9596°W)
Time: 20:31:41
(UTC+00:00)

Courier 1B - Pass Details

Date: 04 October 2022
Orbit: 962 x 1209 km, 28.3° (Epoch: 29 November)

Event Time Altitude Azimuth Distance (km) Brightness Sun altitude
Rises 22:59:43 0° 241° (WSW) 3,974 12.4 19.5°
Reaches altitude 10° 23:03:29 10° 224° (SW) 2,967 11.7 18.9°
Maximum altitude 23:08:13 19° 183° (S) 2,327 10.0 18.2°
Drops below altitude 10° 23:12:46 10° 142° (SE) 2,843 9.9 17.5°
Sets 23:16:17 0° 124° (SE) 3,751 10.3 16.9°
